Regional Weather Roundup
Issued by NWS

Home | Current Version | Previous Version | Text Only | Print | Product List | Glossary On
Versions: 1 2 3 4 5 6 7 8 9 10 11 12 13 14 15 16 17 18 19 20 21 22 23 24 25 26 27 28 29 30 31 32 33 34 35 36 37 38 39 40 41 42 43 44 45 46 47 48 49 50
918
ASUS43 KIND 230009
RWRIN

WEATHER ROUNDUP FOR INDIANA
NATIONAL WEATHER SERVICE INDIANAPOLIS IN
700 PM EST WED NOV 22 2017

NOTE: "FAIR" INDICATES FEW OR NO CLOUDS BELOW 12,000 FEET WITH NO
SIGNIFICANT WEATHER AND/OR OBSTRUCTIONS TO VISIBILITY.

* - STATION DOES NOT REPORT WEATHER SUCH AS PRECIPITATION OR FOG.

+ - STATION NOT QUALITY CONTROLLED BY THE NATIONAL WEATHER SERVICE.
    USE DATA WITH CAUTION...ESPECIALLY DEWPOINT AND RELATIVE
    HUMIDITY OBSERVATIONS.

INZ001>003-010>013-019-020-230100-
NORTHWEST INDIANA

CITY           SKY/WX    TMP DP  RH WIND       PRES   REMARKS
GARY /AIRPORT/ MOCLDY    32  14  47 VRB5      30.26F WCI  27
KNOX *+        CLOUDY    28  21  74 CALM      30.25F
LA PORTE +     PTCLDY    29  20  68 SW3       30.26S
6HR MIN TEMP:  29; 6HR MAX TEMP:  36;

MICHIGAN CITY+ PTCLDY    30  23  74 CALM      30.26F
MONTICELLO +   PTCLDY    30  21  69 SW3       30.26F
6HR MIN TEMP:  29; 6HR MAX TEMP:  36;

RENSSELAER +   CLOUDY    30  18  59 CALM      30.27S
VALPARAISO     CLOUDY    32  17  54 SW7       30.26S WCI  26
6HR MIN TEMP:  32; 6HR MAX TEMP:  38;


$$

LMZ046-743>745-230100-
SOUTHERN LAKE MICHIGAN

STATION/POSITION TIME  TEMP    WIND        PRES    WAVE
                       AIR SEA DIR/SP/G            HT
                 (UTC) (F)     (DEG/KT/KT) (MB)    (FT)
BURNS HARBOR     2340   34     210/  6/  8 1024.7F
MICHIGAN CITY    2340   33     150/  3/  4   N/A

$$

INZ004-005-014>016-021>024-230100-
NORTH CENTRAL INDIANA

CITY           SKY/WX    TMP DP  RH WIND       PRES   REMARKS
ELKHART        PTCLDY    32  21  64 CALM      30.25S
GOSHEN         CLOUDY    31  23  72 CALM      30.24F
6HR MIN TEMP:  28; 6HR MAX TEMP:  36;

LOGANSPORT +   CLOUDY    30  27  86 SW5       30.27F WCI  25
PERU/GRISSOM   CLOUDY    27  24  86 SW6       30.25F WCI  21
6HR MIN TEMP:  27; 6HR MAX TEMP:  38;

ROCHESTER +    CLOUDY    32  25  74 W3        30.26S
SOUTH BEND     PTCLDY    28  23  81 CALM      30.25F
6HR MIN TEMP:  27; 6HR MAX TEMP:  36;

WARSAW +       PTCLDY    30  23  74 CALM      30.25S

$$

INZ006>009-017-018-025>027-230100-
NORTHEAST INDIANA

CITY           SKY/WX    TMP DP  RH WIND       PRES   REMARKS
AUBURN +       PTCLDY    28  23  80 CALM      30.25F
FORT WAYNE     CLOUDY    30  22  72 E3        30.26F
6HR MIN TEMP:  30; 6HR MAX TEMP:  39;

HUNTINGTON +   PTCLDY    29  23  77 CALM      30.26S
6HR MIN TEMP:  29; 6HR MAX TEMP:  37;

KENDALLVILLE + CLOUDY    28  21  74 CALM      30.24F

$$

INZ028-029-035-036-043>045-051>053-230100-
WEST CENTRAL INDIANA

CITY           SKY/WX    TMP DP  RH WIND       PRES   REMARKS
CRAWFORDSVL +  CLOUDY    27  22  79 MISG        N/A
6HR MIN TEMP:  27; 6HR MAX TEMP:  35;

GREENCASTLE +  CLEAR     30  21  69 CALM      30.27F
LAFAYETTE      CLOUDY    29  22  75 CALM      30.27F
6HR MIN TEMP:  27; 6HR MAX TEMP:  37;

TERRE HAUTE    CLEAR     28  21  75 CALM      30.28F
6HR MIN TEMP:  27; 6HR MAX TEMP:  40;


$$

INZ030>032-037>040-046>048-054>057-064-065-230100-
CENTRAL INDIANA

CITY           SKY/WX    TMP DP  RH WIND       PRES   REMARKS
CP ATTERBURY + CLEAR     30  23  74 CALM      30.28S
COLUMBUS       CLEAR     32  27  80 CALM      30.28S
FRANKFORT +    CLOUDY    31  26  82 CALM      30.29R
6HR MIN TEMP:  30; 6HR MAX TEMP:  40;

GREENWOOD *+   CLEAR     32  26  78 NW3       30.28S
INDIANAPOLIS   PTCLDY    31  22  69 NW3       30.27F
6HR MIN TEMP:  31; 6HR MAX TEMP:  39;

-EAGLE CREEK   CLEAR     31  22  69 CALM      30.26F
6HR MIN TEMP:  31; 6HR MAX TEMP:  38;

KOKOMO +       PTCLDY    30  24  78 SW5       30.27S WCI  25
6HR MIN TEMP:  29; 6HR MAX TEMP:  37;

MARION +       CLEAR     29  26  85 SW5       30.27S WCI  24
MT COMFORT *+  CLEAR     27  25  93 CALM      30.27S
SHELBYVILLE    CLEAR     29  20  69 NE5       30.26S WCI  24
6HR MIN TEMP:  29; 6HR MAX TEMP:  41;

ZIONSVILLE +   CLEAR     28  23  81 CALM      30.27S
6HR MIN TEMP:  27; 6HR MAX TEMP:  35;


$$

INZ033-034-041-042-049-050-058-059-230100-
EAST CENTRAL INDIANA

CITY           SKY/WX    TMP DP  RH WIND       PRES   REMARKS
MUNCIE         CLEAR     29  22  75 CALM      30.26S
6HR MIN TEMP:  29; 6HR MAX TEMP:  40;

RICHMOND +     CLOUDY    27  23  86 E3        30.26S

$$

INZ060-061-067>069-081>083-085>088-230100-
SOUTHWEST INDIANA

CITY           SKY/WX    TMP DP  RH WIND       PRES   REMARKS
EVANSVILLE     CLEAR     34  23  64 N5        30.29R WCI  30
6HR MIN TEMP:  34; 6HR MAX TEMP:  42; 6HR PCP: TRACE;

HUNTINGBURG +  CLEAR     33  23  66 N6        30.28S WCI  28
6HR MIN TEMP:  33; 6HR MAX TEMP:  40;

WASHINGTON +   CLEAR     32  21  65 NW5       30.28S WCI  27
6HR MIN TEMP:  30; 6HR MAX TEMP:  39;


$$

INZ062-063-066-070>080-084-089>092-230100-
SOUTH CENTRAL AND SOUTHEAST INDIANA

CITY           SKY/WX    TMP DP  RH WIND       PRES   REMARKS
BLOOMINGTON    CLEAR     28  20  71 CALM      30.26F
6HR MIN TEMP:  27; 6HR MAX TEMP:  41;

MADISON *+     CLEAR     32  23  69 CALM      30.28S
NORTH VERNON + CLEAR     30  23  74 CALM      30.28S
SEYMOUR +      CLEAR     34  23  64 CALM      30.28S

$$





USA.gov is the U.S. government's official web portal to all federal, state and local government web resources and services.